| time (UTC) | temp F | wind direction | speed MPH | gust MPH | rain 1hr in | rain 24hr in | rain mn in | humidity % | barometer mb |
| 20260504181321 | 69 | 338 | 0.0 | 2.0 | 0.00 | 0.00 | 0.00 | 41 | 1002.8 |
| 20260504180623 | 71 | 338 | 1.0 | 3.0 | 0.00 | 0.00 | 0.00 | 40 | 1002.8 |
| 20260504171725 | 79 | 23 | 0.0 | 1.0 | 0.00 | 0.00 | 0.00 | 34 | 1002.5 |
| 20260504080436 | 73 | 0 | 10.0 | 17.0 | 0.00 | 0.00 | 0.00 | 34 | 1005.9 |
| 20260504070138 | 70 | 0 | 11.0 | 17.0 | 0.00 | 0.00 | 0.00 | 37 | 1005.6 |
| 20260504045541 | 60 | 0 | 10.0 | 13.0 | 0.00 | 0.00 | 0.00 | 47 | 1005.7 |
| 20260504044841 | 60 | 0 | 9.0 | 17.0 | 0.00 | 0.00 | 0.00 | 47 | 1005.6 |
| 20260504043441 | 59 | 0 | 6.0 | 11.0 | 0.00 | 0.00 | 0.00 | 50 | 1005.6 |
| 20260504041342 | 54 | 0 | 2.0 | 6.0 | 0.00 | 0.00 | 0.00 | 58 | 1005.5 |
| 20260504040642 | 52 | 0 | 1.0 | 6.0 | 0.00 | 0.00 | 0.00 | 58 | 1005.6 |
| 20260504033843 | 51 | 0 | 1.0 | 6.0 | 0.00 | 0.00 | 0.00 | 60 | 1005.6 |
| 20260504033143 | 50 | 0 | 1.0 | 4.0 | 0.00 | 0.00 | 0.00 | 61 | 1005.7 |
| 20260504031743 | 48 | 0 | 0.0 | 3.0 | 0.00 | 0.00 | 0.00 | 63 | 1005.7 |
| 20260504030344 | 47 | 0 | 0.0 | 0.0 | 0.00 | 0.00 | 0.00 | 64 | 1005.7 |
| 20260504023544 | 47 | 0 | 0.0 | 0.0 | 0.00 | 0.00 | 0.00 | 62 | 1005.7 |
| 20260504014646 | 50 | 0 | 0.0 | 4.0 | 0.00 | 0.00 | 0.00 | 60 | 1005.9 |
| 20260504013252 | 51 | 0 | 0.0 | 4.0 | 0.00 | 0.00 | 0.00 | 61 | 1005.9 |
| 20260504011146 | 50 | 359 | 0.0 | 0.0 | 0.00 | 0.00 | 0.00 | 60 | 1005.8 |
| 20260504010451 | 212 | 359 | 0.0 | 0.0 | 0.00 | 0.00 | 0.00 | 100 | |
| 20260504005747 | 50 | 0 | 0.0 | 0.0 | 0.00 | 0.00 | 0.00 | 59 | 1005.9 |
| 20260504003647 | 51 | 0 | 0.0 | 0.0 | 0.00 | 0.00 | 0.00 | 59 | 1006.0 |
| 20260504002248 | 51 | 0 | 0.0 | 0.0 | 0.00 | 0.00 | 0.00 | 59 | 1005.9 |
| 20260504001548 | 51 | 0 | 0.0 | 0.0 | 0.00 | 0.00 | 0.00 | 59 | 1005.8 |
| 20260504000148 | 51 | 0 | 0.0 | 0.0 | 0.00 | 0.00 | 0.00 | 58 | 1005.8 |
| 20260503235448 | 51 | 0 | 0.0 | 0.0 | 0.00 | 0.00 | 0.00 | 58 | 1005.8 |
| 20260503233349 | 51 | 0 | 0.0 | 0.0 | 0.00 | 0.00 | 0.00 | 57 | 1006.0 |
| 20260503225150 | 53 | 0 | 0.0 | 0.0 | 0.00 | 0.00 | 0.00 | 56 | 1006.0 |
| 20260503223750 | 53 | 0 | 0.0 | 0.0 | 0.00 | 0.00 | 0.00 | 55 | 1006.0 |
| 20260503223101 | 53 | 0 | 0.0 | 0.0 | 0.00 | 0.00 | 0.00 | 55 | 1006.0 |
| 20260503222351 | 52 | 0 | 0.0 | 0.0 | 0.00 | 0.00 | 0.00 | 55 | 1006.1 |
| 20260503221651 | 52 | 0 | 0.0 | 0.0 | 0.00 | 0.00 | 0.00 | 54 | 1006.1 |
| 20260503220951 | 52 | 0 | 0.0 | 0.0 | 0.00 | 0.00 | 0.00 | 52 | 1006.3 |
| 20260503220251 | 53 | 0 | 0.0 | 0.0 | 0.00 | 0.00 | 0.00 | 51 | 1006.2 |
| 20260503215602 | 53 | 0 | 0.0 | 0.0 | 0.00 | 0.00 | 0.00 | 50 | 1006.2 |
| 20260503214851 | 53 | 0 | 0.0 | 0.0 | 0.00 | 0.00 | 0.00 | 49 | 1006.2 |
| 20260503212054 | 55 | 0 | 0.0 | 0.0 | 0.00 | 0.00 | 0.00 | 48 | 1006.0 |
| 20260503210652 | 55 | 0 | 0.0 | 0.0 | 0.00 | 0.00 | 0.00 | 48 | 1006.3 |
| 20260503204555 | 56 | 0 | 0.0 | 0.0 | 0.00 | 0.00 | 0.00 | 45 | 1006.1 |
| 20260503203858 | 57 | 0 | 0.0 | 0.0 | 0.00 | 0.00 | 0.00 | 45 | 1006.0 |
| 20260503202454 | 58 | 0 | 0.0 | 0.0 | 0.00 | 0.00 | 0.00 | 45 | 1006.1 |
| 20260503201054 | 58 | 0 | 0.0 | 0.0 | 0.00 | 0.00 | 0.00 | 44 | 1005.9 |
| 20260503194954 | 59 | 0 | 0.0 | 0.0 | 0.00 | 0.00 | 0.00 | 43 | 1005.9 |
| 20260503192155 | 60 | 0 | 0.0 | 0.0 | 0.00 | 0.00 | 0.00 | 41 | 1006.2 |
| 20260503191500 | 60 | 0 | 0.0 | 0.0 | 0.00 | 0.00 | 0.00 | 41 | 1006.0 |
| 20260503190058 | 61 | 0 | 0.0 | 0.0 | 0.00 | 0.00 | 0.00 | 40 | 1005.9 |